Regional Weather Roundup
Issued by NWS

Home | Current Version | Previous Version | Graphics & Text | Print | Product List | Glossary On
Versions: 1 2 3 4 5 6 7 8 9 10 11 12 13 14 15 16 17 18 19 20 21 22 23 24 25 26 27 28 29 30 31 32 33 34 35 36 37 38 39 40 41 42 43 44 45 46 47 48 49 50
000
ASUS43 KBIS 281402
RWRND

NORTH DAKOTA REGIONAL WEATHER ROUNDUP
NATIONAL WEATHER SERVICE BISMARCK ND
900 AM CDT FRI AUG 28 2015

NOTE: "FAIR" INDICATES FEW OR NO CLOUDS BELOW 12,000 FEET WITH NO
SIGNIFICANT WEATHER AND/OR OBSTRUCTIONS TO VISIBILITY.


NDZ001>003-009>011-017-281500-
NORTHWEST NORTH DAKOTA

CITY           SKY/WX    TMP DP  RH WIND       PRES   REMARKS
WILLISTON      MOSUNNY   62  59  90 CALM      29.90R
MINOT          PTSUNNY   67  59  75 SW14      29.84R HAZE
MINOT AFB      MOSUNNY   66  65  96 W6        29.83R
$$

NDZ018>021-031>035-040>046-281500-
SOUTHWEST NORTH DAKOTA

CITY           SKY/WX    TMP DP  RH WIND       PRES   REMARKS
BISMARCK       MOSUNNY   66  62  87 CALM      29.91S
DICKINSON      SUNNY     64  57  78 SW7       29.93R
GARRISON         N/A     65  61  87 SW7       29.88S
HETTINGER ARPT SUNNY     61  57  87 CALM      29.98R
$$

NDZ004>008-012>016-024-026-027-054-281500-
NORTHEAST NORTH DAKOTA

CITY           SKY/WX    TMP DP  RH WIND       PRES   REMARKS
GRAND FORKS    MOSUNNY   67  64  90 S9        29.85R
GRND FRKS AFB  SUNNY     69  65  85 N3        29.85R
DEVILS LAKE    SUNNY     70  59  68 SW15      29.82F
$$

NDZ022-023-025-028>030-036>039-047>053-281500-
SOUTHEAST NORTH DAKOTA

CITY           SKY/WX    TMP DP  RH WIND       PRES   REMARKS
FARGO          SUNNY     67  63  87 S14       29.91F
JAMESTOWN      SUNNY     65  62  90 S5        29.90R
$$




USA.gov is the U.S. government's official web portal to all federal, state and local government web resources and services.